• In Hungary
  • List of Countries
  • For 7 days
  • Water Temperature
  • Satellite Maps
  • Weather Map
  • News
  • Weather Widgets
  • user-avatar
    Login

    Hourly Weather Lychanovo

    Today, 21 August, Tuesday

    Time Temperature Precipitation Wind Pressure Humidity
    00:00 +17°C° 0.1 mm 3 mps 744 mmHg 96%
    01:00 +17°C° 0.1 mm 3 mps 743 mmHg 96%
    02:00 +17°C° 0.1 mm 4 mps 743 mmHg 95%
    03:00 +17°C° 0 mm 4 mps 742 mmHg 96%
    04:00 +17°C° 0.1 mm 4 mps 741 mmHg 95%
    05:00 +16°C° 0.1 mm 5 mps 741 mmHg 94%
    06:00 +16°C° 0.1 mm 6 mps 740 mmHg 93%
    07:00 +16°C° 0.4 mm 6 mps 739 mmHg 91%
    08:00 +17°C° 0.4 mm 6 mps 739 mmHg 90%
    09:00 +18°C° 0 mm 7 mps 738 mmHg 89%
    10:00 +18°C° 1.1 mm 7 mps 738 mmHg 88%
    11:00 +18°C° 1.1 mm 7 mps 738 mmHg 88%
    12:00 +19°C° 1.1 mm 6 mps 738 mmHg 88%
    13:00 +18°C° 0.3 mm 7 mps 738 mmHg 81%
    14:00 +20°C° 0.3 mm 7 mps 738 mmHg 74%
    15:00 +20°C° 0.3 mm 7 mps 738 mmHg 66%
    16:00 +18°C° 0.1 mm 7 mps 739 mmHg 67%
    17:00 +19°C° 0.1 mm 6 mps 739 mmHg 67%
    18:00 +17°C° 0.1 mm 6 mps 740 mmHg 67%
    19:00 +15°C° 0 mm 5 mps 740 mmHg 72%
    20:00 +14°C° 0 mm 5 mps 740 mmHg 77%
    21:00 +12°C° 0 mm 4 mps 741 mmHg 82%
    22:00 +12°C° 0 mm 4 mps 741 mmHg 85%
    23:00 +11°C° 0 mm 4 mps 741 mmHg 87%

    Tomorrow, 22 August, Wednesday

    Time Temperature Precipitation Wind Pressure Humidity
    00:00 +11°C° 0 mm 4 mps 741 mmHg 89%
    01:00 +10°C° 0 mm 4 mps 742 mmHg 89%
    02:00 +10°C° 0 mm 4 mps 742 mmHg 89%
    03:00 +10°C° 0 mm 4 mps 742 mmHg 89%
    04:00 +10°C° 0 mm 4 mps 742 mmHg 89%
    05:00 +9°C° 0 mm 5 mps 743 mmHg 89%
    06:00 +9°C° 0 mm 5 mps 743 mmHg 89%
    07:00 +10°C° 0 mm 5 mps 743 mmHg 82%
    08:00 +12°C° 0 mm 5 mps 744 mmHg 76%
    09:00 +14°C° 0 mm 6 mps 744 mmHg 70%
    10:00 +15°C° 0 mm 6 mps 745 mmHg 65%
    11:00 +15°C° 0 mm 6 mps 745 mmHg 61%
    12:00 +16°C° 0 mm 6 mps 746 mmHg 56%
    13:00 +17°C° 0.1 mm 6 mps 746 mmHg 55%
    14:00 +17°C° 0.1 mm 6 mps 746 mmHg 54%
    15:00 +17°C° 0.1 mm 6 mps 747 mmHg 53%
    16:00 +16°C° 0.1 mm 5 mps 747 mmHg 57%
    17:00 +16°C° 0.1 mm 5 mps 748 mmHg 61%
    18:00 +15°C° 0.1 mm 4 mps 748 mmHg 64%
    19:00 +14°C° 0 mm 4 mps 749 mmHg 67%
    20:00 +13°C° 0 mm 3 mps 749 mmHg 70%
    21:00 +11°C° 0 mm 3 mps 750 mmHg 72%
    22:00 +11°C° 0 mm 3 mps 750 mmHg 75%
    23:00 +10°C° 0 mm 3 mps 750 mmHg 78%

    Day after tomorrow, 23 August, Thursday

    Time Temperature Precipitation Wind Pressure Humidity
    00:00 +9°C° 0 mm 3 mps 751 mmHg 80%
    01:00 +9°C° 0 mm 3 mps 751 mmHg 82%
    02:00 +8°C° 0 mm 2 mps 751 mmHg 83%
    03:00 +8°C° 0 mm 2 mps 752 mmHg 85%
    04:00 +8°C° 0 mm 2 mps 752 mmHg 85%
    05:00 +7°C° 0 mm 2 mps 752 mmHg 84%
    06:00 +7°C° 0 mm 2 mps 752 mmHg 84%
    07:00 +9°C° 0 mm 3 mps 752 mmHg 77%
    08:00 +12°C° 0 mm 3 mps 752 mmHg 71%
    09:00 +14°C° 0 mm 3 mps 752 mmHg 65%
    10:00 +16°C° 0 mm 3 mps 752 mmHg 60%
    11:00 +17°C° 0 mm 4 mps 752 mmHg 56%
    12:00 +19°C° 0 mm 4 mps 752 mmHg 52%
    13:00 +19°C° 0 mm 4 mps 752 mmHg 52%
    14:00 +20°C° 0 mm 4 mps 752 mmHg 51%
    15:00 +20°C° 0 mm 4 mps 752 mmHg 50%
    16:00 +20°C° 0 mm 4 mps 751 mmHg 54%
    17:00 +20°C° 0 mm 3 mps 751 mmHg 58%
    18:00 +19°C° 0 mm 3 mps 751 mmHg 62%
    19:00 +18°C° 0 mm 3 mps 751 mmHg 67%
    20:00 +16°C° 0 mm 3 mps 751 mmHg 72%
    21:00 +13°C° 0 mm 3 mps 751 mmHg 78%
    22:00 +13°C° 0 mm 3 mps 751 mmHg 80%
    23:00 +12°C° 0 mm 3 mps 751 mmHg 82%

    24 August, Friday

    Time Temperature Precipitation Wind Pressure Humidity
    00:00 +12°C° 0 mm 3 mps 752 mmHg 84%
    01:00 +11°C° 0 mm 3 mps 752 mmHg 85%
    02:00 +11°C° 0 mm 3 mps 752 mmHg 87%
    03:00 +10°C° 0 mm 2 mps 752 mmHg 88%
    04:00 +10°C° 0 mm 2 mps 752 mmHg 89%
    05:00 +10°C° 0 mm 2 mps 752 mmHg 89%
    06:00 +10°C° 0 mm 2 mps 752 mmHg 90%
    07:00 +13°C° 0 mm 2 mps 752 mmHg 83%
    08:00 +14°C° 0 mm 3 mps 752 mmHg 77%
    09:00 +17°C° 0 mm 3 mps 752 mmHg 71%
    10:00 +18°C° 0 mm 3 mps 752 mmHg 65%
    11:00 +20°C° 0 mm 3 mps 751 mmHg 60%
    12:00 +21°C° 0 mm 3 mps 751 mmHg 55%
    13:00 +22°C° 0 mm 3 mps 751 mmHg 53%
    14:00 +22°C° 0 mm 3 mps 751 mmHg 52%
    15:00 +24°C° 0 mm 3 mps 751 mmHg 50%
    16:00 +22°C° 0 mm 3 mps 751 mmHg 54%
    17:00 +23°C° 0 mm 2 mps 751 mmHg 58%
    18:00 +21°C° 0 mm 2 mps 750 mmHg 62%
    19:00 +19°C° 0 mm 2 mps 750 mmHg 68%
    20:00 +17°C° 0 mm 2 mps 750 mmHg 73%
    21:00 +15°C° 0 mm 2 mps 750 mmHg 78%
    22:00 +14°C° 0 mm 2 mps 751 mmHg 80%
    23:00 +14°C° 0 mm 2 mps 751 mmHg 82%

    25 August, Saturday

    Time Temperature Precipitation Wind Pressure Humidity
    00:00 +13°C° 0 mm 2 mps 751 mmHg 83%
    01:00 +13°C° 0 mm 2 mps 751 mmHg 85%
    02:00 +13°C° 0 mm 2 mps 751 mmHg 87%
    03:00 +12°C° 0 mm 2 mps 751 mmHg 89%
    04:00 +12°C° 0 mm 2 mps 751 mmHg 89%
    05:00 +12°C° 0 mm 2 mps 751 mmHg 90%
    06:00 +12°C° 0 mm 2 mps 751 mmHg 90%
    07:00 +13°C° 0 mm 3 mps 751 mmHg 84%
    08:00 +16°C° 0 mm 3 mps 751 mmHg 77%
    09:00 +18°C° 0 mm 3 mps 751 mmHg 70%
    10:00 +20°C° 0 mm 4 mps 751 mmHg 64%
    11:00 +21°C° 0 mm 4 mps 751 mmHg 57%
    12:00 +23°C° 0 mm 5 mps 751 mmHg 51%
    13:00 +25°C° 0 mm 5 mps 750 mmHg 50%
    14:00 +25°C° 0 mm 5 mps 750 mmHg 48%
    15:00 +25°C° 0 mm 5 mps 750 mmHg 47%
    16:00 +25°C° 0 mm 4 mps 750 mmHg 51%
    17:00 +24°C° 0 mm 3 mps 749 mmHg 55%
    18:00 +22°C° 0 mm 3 mps 749 mmHg 59%
    19:00 +21°C° 0 mm 3 mps 749 mmHg 64%
    20:00 +19°C° 0 mm 3 mps 749 mmHg 69%
    21:00 +17°C° 0 mm 3 mps 749 mmHg 73%
    22:00 +16°C° 0 mm 3 mps 749 mmHg 74%
    23:00 +16°C° 0 mm 3 mps 750 mmHg 75%

    26 August, Sunday

    Time Temperature Precipitation Wind Pressure Humidity
    00:00 +16°C° 0 mm 3 mps 750 mmHg 77%
    01:00 +14°C° 0 mm 3 mps 750 mmHg 78%
    02:00 +14°C° 0 mm 3 mps 750 mmHg 80%
    03:00 +13°C° 0 mm 3 mps 750 mmHg 82%
    04:00 +13°C° 0 mm 3 mps 750 mmHg 83%
    05:00 +13°C° 0 mm 3 mps 750 mmHg 84%
    06:00 +13°C° 0 mm 3 mps 751 mmHg 86%
    07:00 +16°C° 0 mm 3 mps 751 mmHg 79%
    08:00 +18°C° 0 mm 3 mps 751 mmHg 73%
    09:00 +19°C° 0 mm 3 mps 751 mmHg 67%
    10:00 +21°C° 0 mm 4 mps 751 mmHg 61%
    11:00 +23°C° 0 mm 4 mps 751 mmHg 55%
    12:00 +26°C° 0 mm 4 mps 751 mmHg 49%
    13:00 +26°C° 0 mm 4 mps 751 mmHg 47%
    14:00 +26°C° 0 mm 4 mps 751 mmHg 45%
    15:00 +27°C° 0 mm 3 mps 751 mmHg 43%
    16:00 +26°C° 0 mm 3 mps 751 mmHg 48%
    17:00 +25°C° 0 mm 2 mps 751 mmHg 53%
    18:00 +25°C° 0 mm 2 mps 750 mmHg 57%
    19:00 +23°C° 0 mm 2 mps 750 mmHg 61%
    20:00 +20°C° 0 mm 2 mps 750 mmHg 65%
    21:00 +18°C° 0 mm 2 mps 750 mmHg 69%
    22:00 +17°C° 0 mm 2 mps 751 mmHg 70%
    23:00 +17°C° 0 mm 2 mps 751 mmHg 71%
    Show more